Regional Weather Roundup
Issued by NWS

Home | Current Version | Previous Version | Graphics & Text | Print | Product List | Glossary On
Versions: 1 2 3 4 5 6 7 8 9 10 11 12 13 14 15 16 17 18 19 20 21 22 23 24 25 26 27 28 29 30 31 32 33 34 35 36 37 38 39 40 41 42 43 44 45 46 47 48 49 50
000
ASUS44 KMEG 281100
RWRTN
TENNESSEE HOURLY STATE WEATHER ROUNDUP
NATIONAL WEATHER SERVICE MEMPHIS TN
500 AM CST SUN DEC 28 2014

TNZ002-004-019-021-049-052-054-088>092-281200-
WEST TENNESSEE

CITY           SKY/WX    TMP DP  RH WIND       PRES   REMARKS
MEMPHIS INTL   LGT RAIN  41  38  89 N9        30.17R
NWS MEMPHIS      N/A     39 N/A N/A MISG        N/A
JACKSON        CLOUDY    40  37  89 N12       30.15R FOG     WCI  33
DYERSBURG      CLOUDY    37  27  65 N8        30.19R WCI  31
UNION CITY     CLOUDY    36  36 100 N9        30.14F WCI  29
PARIS          CLOUDY    36  34  93 N10       30.13F WCI  28
LEXINGTON      CLOUDY    39  39 100 N10       30.12R WCI  32
SAVANNAH       CLOUDY    45  45 100 N9        30.12R
$$

TNZ008-025-027-028-033-062-065-066-281200-
NORTH MIDDLE TENNESSEE

CITY           SKY/WX    TMP DP  RH WIND       PRES   REMARKS
NASHVILLE      CLOUDY    49  47  93 NW12      30.08R
CLARKSVILLE    LGT RAIN  39  38  96 N14       30.13R FOG     WCI  31
CROSSVILLE     LGT RAIN  50  48  93 CALM      30.04F FOG
$$

TNZ061-075-076-078-094-096-097-281200-
SOUTH MIDDLE TENNESSEE

CITY           SKY/WX    TMP DP  RH WIND       PRES   REMARKS
TULLAHOMA      CLOUDY    48  48 100 CALM      30.05R
WINCHESTER     CLOUDY    52  50  93 NW3       30.04S
SHELBYVILLE    CLOUDY    52  50  93 NW5       30.07R
$$

TNZ017-018-042-046-047-281200-
NORTHEAST TENNESSEE

CITY           SKY/WX    TMP DP  RH WIND       PRES   REMARKS
TRI CITIES     CLOUDY    47  41  80 CALM      30.06R
ELIZABETHTON   MOSUNNY   45  36  70 CALM      30.04F
$$

TNZ012-013-036-069-073-074-281200-
CENTRAL EAST TENNESSEE

CITY           SKY/WX    TMP DP  RH WIND       PRES   REMARKS
KNOXVILLE      DRIZZLE   48  44  86 SE5       30.06R
OAK RIDGE      CLOUDY    52  50  93 W8        30.06S
GATLINBURG     PTSUNNY   45  39  81 CALM      30.06R
$$

TNZ083-085-099-281200-
SOUTHEAST TENNESSEE

CITY           SKY/WX    TMP DP  RH WIND       PRES   REMARKS
CHATTANOOGA    DRIZZLE   52  51  97 CALM      30.05F FOG
$$

SKY/WX REPORTED AS FAIR MEANS FEW OR NO CLOUDS BELOW
12 THOUSAND FEET.



USA.gov is the U.S. government's official web portal to all federal, state and local government web resources and services.